[[{"header":{"parameterUnit":"m.s-1","parameterCategory":1,"la1":30.2991,"la2":30.254,"lo1":-89.0895,"lo2":-89.0444,"dy":0.0017,"dx":0.0017,"nx":28,"ny":28,"refTime":"2025-09-19T09:00:00:Z","depth":0,"parameterNumber":2,"parameterNumberName":"U-component_of_WINDS"},"data":[0,0,0,0,0,0,0,0,0,0,0,0,0,0,0,0,0,0,0,0,0,0,0,0,0,0,0,0,0,0,0,0,0,0,0,0,0,0,0,0,0,0,0,0,0,0,0,0,0,0,0,0,0,0,0,0,0,0,0.1181,0.1182,0,0.1289,0.129,0.1292,0.1344,0.1344,0.1344,0.1344,0.1457,0.146,0.1463,0,0,0,0,0,0,0,0,0,0,0,0,0,0.1021,0.1023,0.1181,0.1182,0.1184,0.1289,0.129,0.1292,0.1344,0.1344,0.1344,0.1344,0.1456,0.146,0.1463,0,0,0,0,0,0,0,0,0,0,0,0,0,0.1106,0.1024,0.1181,0.1222,0.1227,0.1289,0.1291,0.1292,0.1344,0.1344,0.1344,0.1344,0.1455,0.1459,0.1464,0.1494,0,0,0.1478,0.148,0,0,0,0,0,0,0,0,0.1101,0.1111,0.1215,0.1219,0.1225,0.1303,0.1276,0.136,0.1344,0.1299,0.1344,0.1344,0.1406,0.1415,0.1435,0.1499,0.1504,0.1478,0.1481,0.1483,0.1484,0,0,0,0,0,0,0,0.1095,0.1107,0.1224,0.1216,0.1222,0.1236,0.1248,0.1292,0.1352,0.1303,0.1307,0.1319,0.1409,0.1431,0.1438,0.1505,0.1478,0.1482,0.1485,0.1487,0.1598,0.1598,0,0,0,0,0,0,0.1082,0.1102,0.122,0.1227,0.1161,0.1239,0.1252,0.1278,0.1352,0.1363,0.1319,0.1321,0.1423,0.1433,0.1442,0.1482,0.1483,0.1487,0.149,0.1598,0.1598,0.1598,0,0,0,0,0,0,0.1078,0.1092,0.1216,0.1166,0.1182,0.1241,0.127,0.128,0.1302,0.1364,0.1375,0.133,0.1423,0.1436,0.148,0.1486,0.1489,0.1494,0.1598,0.1598,0.1598,0.156,0,0,0,0,0,0,0.1073,0.109,0.1102,0.1165,0.1185,0.1251,0.127,0.1282,0.1309,0.1313,0.1377,0.1388,0.1424,0.1473,0.1485,0.1493,0.1497,0.1597,0.1598,0.1598,0.1561,0.1559,0.1557,0,0,0,0,0,0.1067,0.1088,0.1102,0.1116,0.12,0.1252,0.1263,0.1304,0.131,0.1322,0.1361,0.1385,0.1483,0.1477,0.1491,0.15,0.1597,0.1598,0.1598,0.1562,0.1559,0.1557,0,0,0,0,0,0,0.1025,0.1097,0.1114,0.1155,0.1196,0.126,0.1277,0.13,0.1341,0.1343,0.1393,0.1407,0.1447,0.1478,0.1469,0.1532,0.1543,0.1546,0.151,0.1509,0.1507,0.1499,0.1501,0,0,0,0,0,0.1019,0.1054,0.1116,0.1146,0.1166,0.1218,0.1242,0.1269,0.1315,0.1333,0.1376,0.142,0.146,0.1486,0.1527,0.1566,0.158,0.1579,0.1577,0.1575,0.1577,0.1599,0.1599,0.16,0.16,0.16,0,0,0.101,0.1054,0.1073,0.1139,0.1174,0.1209,0.1232,0.1269,0.1296,0.1339,0.1383,0.1415,0.1468,0.1509,0.1529,0.1536,0.158,0.1575,0.1574,0.1577,0.16,0.16,0.16,0.16,0.16,0.16,0,0,0.1011,0.1048,0.1077,0.1111,0.1164,0.1198,0.1205,0.1265,0.1288,0.1333,0.1366,0.1398,0.1468,0.1503,0.153,0.1543,0.1567,0.1555,0.1545,0.1566,0.1566,0.1567,0.1571,0.1572,0.1557,0.1557,0.1557,0,0.0993,0.1047,0.1089,0.1123,0.1151,0.119,0.122,0.1252,0.1316,0.1335,0.1341,0.1428,0.1466,0.1515,0.1518,0.1539,0.1548,0.1548,0.1563,0.1563,0.1564,0.1569,0.1571,0.1555,0.1555,0.1555,0.1556,0,0.1022,0.1059,0.1076,0.1136,0.1165,0.1197,0.1244,0.1269,0.1294,0.1327,0.1372,0.1418,0.1469,0.1483,0.1508,0.1536,0.1538,0.1553,0.1565,0.1562,0.1567,0.1569,0.1553,0.1553,0.1554,0.1554,0,0,0.1001,0.1081,0.1087,0.1114,0.1175,0.1204,0.1238,0.1286,0.1307,0.1349,0.1379,0.1435,0.1449,0.1479,0.1509,0.1527,0.1534,0.154,0.1542,0.1537,0.1567,0.1556,0.1557,0.1549,0.155,0.155,0.1563,0,0.101,0.1071,0.1109,0.1155,0.119,0.1227,0.1256,0.1296,0.1328,0.1362,0.1397,0.1437,0.1452,0.147,0.149,0.1528,0.154,0.1528,0.1578,0.1579,0.1564,0.156,0.1549,0.1558,0.1565,0.1565,0.1566,0,0.103,0.107,0.1119,0.1175,0.1191,0.1216,0.1263,0.1295,0.1342,0.1363,0.1396,0.1426,0.1463,0.147,0.1522,0.1513,0.1535,0.1557,0.1558,0.1565,0.1572,0.1567,0.1562,0.1563,0.1569,0.1569,0.1569,0,0.1009,0.1075,0.1113,0.1135,0.1201,0.1218,0.1247,0.1293,0.1319,0.136,0.1378,0.1423,0.1448,0.1482,0.1523,0.1524,0.157,0.1581,0.1589,0.1588,0.1598,0.1597,0.1597,0.1612,0.1612,0.1612,0.1612,0,0.1016,0.1045,0.1105,0.1128,0.1161,0.1204,0.1236,0.1267,0.1308,0.1338,0.1373,0.14,0.1452,0.1486,0.1518,0.1556,0.1567,0.1586,0.1594,0.1583,0.158,0.1599,0.1599,0.1612,0.1612,0.1612,0.1612,0,0.0999,0.104,0.1084,0.1142,0.1157,0.1179,0.1229,0.1253,0.1286,0.1324,0.1335,0.1387,0.1428,0.1472,0.1529,0.155,0.1587,0.1598,0.1571,0.1576,0.1581,0.158,0.1593,0.1597,0.1608,0.1608,0.1608,0,0.1001,0.1024,0.1084,0.1106,0.1133,0.1169,0.1195,0.1238,0.1265,0.1318,0.1336,0.138,0.1417,0.1482,0.1525,0.1569,0.1582,0.1583,0.1589,0.1576,0.1582,0.158,0.1582,0.1582,0.1581,0.1581,0.1581,0,0.1,0.1019,0.1055,0.1099,0.1129,0.1165,0.1203,0.122,0.127,0.1298,0.134,0.1369,0.1426,0.147,0.1518,0.1548,0.1573,0.1579,0.1583,0.1572,0.1555,0.1564,0.1566,0.1578,0.1579,0.1579,0.1579,0.1579,0.0993,0.1014,0.106,0.1099,0.1131,0.1166,0.1191,0.1226,0.1262,0.1311,0.1334,0.1377,0.1422,0.1489,0.1518,0.1552,0.1559,0.1565,0.1567,0.1568,0.1565,0.1549,0.1561,0.1561,0.1561,0.1561,0.1562,0,0.0994,0.1024,0.106,0.1111,0.1142,0.1161,0.1203,0.1228,0.1264,0.1304,0.134,0.1388,0.143,0.1475,0.152,0.1538,0.1551,0.1548,0.1548,0.1554,0.1556,0.1548,0.1537,0.1537,0.1537,0.1537,0.1537,0.1537,0.0998,0.1035,0.1059,0.1112,0.1143,0.1184,0.1207,0.1238,0.127,0.1322,0.1356,0.1385,0.1427,0.1475,0.1514,0.1526,0.1541,0.1535,0.1551,0.1552,0.1554,0.1556,0.1548,0.1538,0.1538,0.1546,0.1546,0.1546]},{"header":{"parameterUnit":"m.s-1","parameterCategory":1,"la1":30.2991,"la2":30.254,"lo1":-89.0895,"lo2":-89.0444,"dy":0.0017,"dx":0.0017,"nx":28,"ny":28,"refTime":"2025-09-19T09:00:00:Z","depth":0,"parameterNumber":3,"parameterNumberName":"V-component_of_WINDS"},"data":[0,0,0,0,0,0,0,0,0,0,0,0,0,0,0,0,0,0,0,0,0,0,0,0,0,0,0,0,0,0,0,0,0,0,0,0,0,0,0,0,0,0,0,0,0,0,0,0,0,0,0,0,0,0,0,0,0,0,0.948,0.948,0,0.9446,0.9445,0.9445,0.9436,0.9436,0.9437,0.9437,0.94,0.9399,0.9398,0,0,0,0,0,0,0,0,0,0,0,0,0,0.9535,0.9535,0.948,0.948,0.9479,0.9446,0.9445,0.9445,0.9436,0.9436,0.9437,0.9437,0.94,0.9399,0.9397,0,0,0,0,0,0,0,0,0,0,0,0,0,0.9507,0.9534,0.948,0.9471,0.947,0.9446,0.9445,0.9445,0.9436,0.9436,0.9437,0.9437,0.9401,0.9399,0.9397,0.938,0,0,0.9392,0.9391,0,0,0,0,0,0,0,0,0.9509,0.9505,0.9473,0.9471,0.947,0.9446,0.9451,0.9423,0.9436,0.9449,0.9437,0.9437,0.9415,0.9412,0.9405,0.9378,0.9376,0.9392,0.9391,0.939,0.9389,0,0,0,0,0,0,0,0.9511,0.9507,0.9466,0.9472,0.9471,0.9468,0.9464,0.9446,0.943,0.9448,0.9447,0.9443,0.9414,0.9406,0.9404,0.9376,0.9392,0.939,0.9389,0.9388,0.9331,0.9331,0,0,0,0,0,0,0.9515,0.9508,0.9468,0.9465,0.9491,0.9466,0.9462,0.9453,0.943,0.9427,0.9443,0.9443,0.9409,0.9406,0.9402,0.9379,0.939,0.9388,0.9387,0.9332,0.9331,0.933,0,0,0,0,0,0,0.9516,0.9511,0.9469,0.9487,0.9481,0.9465,0.9455,0.9452,0.9445,0.9427,0.9424,0.9438,0.9409,0.9405,0.9385,0.9377,0.9387,0.9386,0.9332,0.9331,0.9331,0.9333,0,0,0,0,0,0,0.9518,0.9512,0.9506,0.9487,0.948,0.9453,0.9454,0.9451,0.9442,0.9441,0.9421,0.9418,0.9409,0.9388,0.9383,0.9375,0.9384,0.9333,0.9332,0.9331,0.9333,0.9332,0.9331,0,0,0,0,0,0.952,0.9508,0.9505,0.95,0.9472,0.9453,0.9449,0.9439,0.9441,0.9434,0.9423,0.9419,0.9379,0.9386,0.9381,0.9372,0.9333,0.9332,0.9331,0.9334,0.9332,0.9331,0,0,0,0,0,0,0.9526,0.9505,0.9502,0.9484,0.947,0.9451,0.9443,0.9438,0.9423,0.9424,0.9411,0.9407,0.9388,0.9378,0.9386,0.9353,0.9356,0.9354,0.936,0.9358,0.9357,0.936,0.9383,0,0,0,0,0,0.9525,0.9512,0.9494,0.948,0.9473,0.9459,0.945,0.9443,0.9428,0.9422,0.9409,0.9394,0.9378,0.9368,0.9352,0.9332,0.9326,0.9323,0.9322,0.9322,0.932,0.9306,0.9304,0.9327,0.9327,0.9327,0,0,0.9524,0.9511,0.9503,0.9481,0.9469,0.9454,0.9454,0.9439,0.9427,0.942,0.94,0.939,0.9372,0.9352,0.9342,0.9343,0.9312,0.932,0.932,0.9318,0.9305,0.9303,0.9301,0.9326,0.9327,0.9327,0,0,0.9513,0.9503,0.9489,0.9477,0.9459,0.945,0.9447,0.9428,0.9421,0.9401,0.9395,0.938,0.9353,0.934,0.933,0.9313,0.9309,0.9308,0.9303,0.929,0.9288,0.9286,0.9279,0.9276,0.9307,0.9307,0.9307,0,0.9513,0.9492,0.9482,0.9466,0.9456,0.9449,0.9433,0.9422,0.9401,0.9393,0.9395,0.936,0.9347,0.9323,0.9318,0.9311,0.9305,0.931,0.9289,0.9287,0.9286,0.9278,0.9275,0.9307,0.9307,0.9307,0.9307,0,0.9492,0.9477,0.9467,0.9446,0.9435,0.942,0.9406,0.9396,0.939,0.938,0.9358,0.9343,0.9324,0.9318,0.9312,0.9291,0.9292,0.9292,0.9295,0.9284,0.9276,0.9273,0.9307,0.9307,0.9307,0.9307,0,0,0.9485,0.9458,0.9454,0.9444,0.9423,0.9411,0.9395,0.9376,0.9366,0.9351,0.9336,0.9312,0.9311,0.93,0.9292,0.9281,0.9266,0.9282,0.9281,0.9278,0.924,0.924,0.9237,0.9263,0.9263,0.9262,0.9241,0,0.9471,0.9442,0.9432,0.9408,0.9393,0.9385,0.937,0.9355,0.9345,0.933,0.9318,0.9301,0.9302,0.9295,0.9283,0.9271,0.9258,0.9272,0.9248,0.9247,0.9251,0.9233,0.9233,0.9214,0.9239,0.9238,0.9238,0,0.9451,0.9435,0.9409,0.9389,0.9382,0.937,0.935,0.9336,0.9318,0.9312,0.9298,0.9291,0.9272,0.9277,0.925,0.9259,0.9248,0.924,0.9239,0.9236,0.9241,0.9228,0.9208,0.9205,0.9233,0.9234,0.9234,0,0.9447,0.9419,0.9399,0.9391,0.9367,0.9358,0.9348,0.933,0.9319,0.9302,0.9294,0.9275,0.9264,0.9248,0.9236,0.9241,0.9209,0.9213,0.9202,0.9202,0.9195,0.9195,0.9171,0.919,0.919,0.919,0.919,0,0.9432,0.9416,0.9397,0.9385,0.9366,0.9354,0.9336,0.9325,0.9309,0.9293,0.9286,0.9271,0.9256,0.9239,0.9229,0.9207,0.9203,0.9195,0.9193,0.9195,0.9196,0.9187,0.9188,0.9189,0.919,0.919,0.919,0,0.9424,0.9411,0.9389,0.9367,0.9362,0.9349,0.933,0.9317,0.9306,0.9287,0.9281,0.9264,0.9243,0.9229,0.9203,0.9196,0.9172,0.917,0.9178,0.9176,0.9165,0.9165,0.9134,0.9128,0.9152,0.9152,0.9152,0,0.9415,0.9402,0.9379,0.9368,0.9358,0.934,0.9328,0.9315,0.9303,0.9281,0.927,0.9249,0.9231,0.9199,0.9183,0.9162,0.9159,0.9149,0.9156,0.9158,0.9157,0.9157,0.9155,0.9148,0.9148,0.9148,0.9148,0,0.9399,0.9393,0.9376,0.9356,0.9342,0.9326,0.9309,0.9301,0.9285,0.9271,0.9249,0.9236,0.9208,0.9187,0.9164,0.9152,0.9146,0.9146,0.9142,0.9144,0.9148,0.9143,0.9173,0.9146,0.9146,0.9147,0.9147,0.9147,0.9389,0.9377,0.9358,0.9339,0.9325,0.931,0.9296,0.9283,0.9265,0.9242,0.9235,0.9212,0.9193,0.9162,0.915,0.9131,0.9132,0.9126,0.9125,0.9123,0.9122,0.9152,0.9127,0.9127,0.9127,0.9127,0.9127,0,0.9372,0.9359,0.9342,0.9318,0.9303,0.9299,0.928,0.9267,0.9247,0.923,0.9212,0.9187,0.9165,0.9148,0.9125,0.9113,0.911,0.9108,0.9108,0.9104,0.9124,0.9129,0.9111,0.9111,0.9111,0.9111,0.9111,0.9111,0.9361,0.9339,0.933,0.9301,0.9288,0.9266,0.9255,0.924,0.9226,0.9197,0.918,0.9168,0.915,0.9125,0.9105,0.91,0.9091,0.909,0.9084,0.9102,0.9104,0.9105,0.911,0.9088,0.9088,0.9066,0.9066,0.9066]}]]